Regional Weather Roundup
Issued by NWS

Home | Current Version | Previous Version | Text Only | Print | Product List | Glossary On
Versions: 1 2 3 4 5 6 7 8 9 10 11 12 13 14 15 16 17 18 19 20 21 22 23 24 25 26 27 28 29 30 31 32 33 34 35 36 37 38 39 40 41 42 43 44 45 46 47 48 49 50
135
ASUS45 KREV 202310
RWRNV
NEVADA REGIONAL WEATHER ROUNDUP
NATIONAL WEATHER SERVICE RENO NV
400 PM PDT FRI OCT 20 2017

NOTE: "FAIR" INDICATES FEW OR NO CLOUDS BELOW 12,000 FEET WITH NO
SIGNIFICANT WEATHER AND/OR OBSTRUCTIONS TO VISIBILITY.

NVZ001-003-004-210000-
WESTERN NEVADA

CITY           SKY/WX    TMP DP  RH WIND       PRES   REMARKS
RENO           PTSUNNY   52  25  35 NW13G18   30.01S
CARSON CITY    PTSUNNY   48  23  37 W7        30.02R
MINDEN         FAIR      48  21  34 W12G17    30.01R
SLIDE MTN        N/A     25  25 100 W10         N/A
FALLON         PTSUNNY   54  16  22 W13G29    29.98S
LOVELOCK       MOSUNNY   53  22  29 W12       29.98R
HAWTHORNE      SUNNY     57  14  18 N22       29.94R
$$

NVZ002-CAZ072-073-210000-
NORTHERN AND CENTRAL SIERRA

CITY           SKY/WX    TMP DP  RH WIND       PRES   REMARKS
S. LAKE TAHOE  PTSUNNY   41  23  48 VRB6      30.03S
TRUCKEE        MOSUNNY   41  27  56 W9        30.05R
SQUAW VLY 8000 NOT AVBL
SUSANVILLE     MOSUNNY   48  32  53 W12       30.03R
BLUE CANYON    MIX PCPN  37  32  82 W7        30.09R
MAMMOTH LAKES  FAIR      50   9  19 NW17G24   29.98R
BRIDGEPORT     FAIR      42  18  37 SW16G22   29.99R
$$

NVZ030-031-036-210000-
NORTHERN NEVADA

CITY           SKY/WX    TMP DP  RH WIND       PRES   REMARKS
ELKO           CLOUDY    48  19  31 W15       29.94R
WINNEMUCCA     MOSUNNY   51  23  33 W17       29.96S
WENDOVER       PTSUNNY   51  23  33 NW20G28   29.90R
$$

NVZ035-037-210000-
CENTRAL NEVADA

CITY           SKY/WX    TMP DP  RH WIND       PRES   REMARKS
ELY            SUNNY     48   5  17 NW21G31   29.91R
EUREKA           N/A     47  13  25 NW12G22   29.94R
$$

NVZ013-014-210000-
SOUTH CENTRAL NEVADA

CITY           SKY/WX    TMP DP  RH WIND       PRES   REMARKS
TONOPAH        SUNNY     54   6  14 N28G38    29.94R
$$

NVZ017-020-022-210000-
SOUTHERN NEVADA

CITY           SKY/WX    TMP DP  RH WIND       PRES   REMARKS
LAS VEGAS      MOSUNNY   79  38  22 W16G22    29.69R
N. LAS VEGAS   MOSUNNY   79  34  19 NW18      29.68R
NELLIS AFB     MOSUNNY   81  37  20 W21G26    29.65R
HENDERSON      SUNNY     76  39  26 SW16      29.73
MERCURY        SUNNY     71  37  28 SW10G18   29.77S
$$




USA.gov is the U.S. government's official web portal to all federal, state and local government web resources and services.